Weather History for Lakeland Region, FL

Change the Weather History Date:

Friday, March 1, 2013

  Actual Average Record
Temperature  
Mean Temperature 55 °F -  
Max Temperature 64 °F 74 °F 86 °F (1997)
Min Temperature 46 °F 55 °F 23 °F (1981)
Degree Days  
Heating Degree Days 10    
Growing Degree Days 5 (Base 50)    
Moisture  
Dew Point 40 °F    
Average Humidity 64    
Maximum Humidity 87    
Minimum Humidity 34    
Precipitation  
Precipitation 0.00 in - - ()
Sea Level Pressure  
Sea Level Pressure 29.98 in    
Wind  
Wind Speed 6 mph (NW)    
Max Wind Speed 17 mph    
Max Gust Speed 23 mph    
Visibility 11 miles    
Events      
Averages and records for this station are not official NWS values.
T = Trace of Precipitation, MM = Missing Value Source: NWS Daily Summary

Daily Weather History Graph

Daily Weather History Graph

Search for Another Location

Airport:

Trip Planner

Search our weather history database for the weather conditions in past years. The results will help you decide how hot, cold, wet, or windy it might be!

Date:

Astronomy

Mar. 01, 2013 Rise Set
Actual Time 6:52 AM EST 6:28 PM EST
Civil Twilight 6:28 AM EST 6:52 PM EST
Nautical Twilight 6:01 AM EST 7:19 PM EST
Astronomical Twilight 5:34 AM EST 7:46 PM EST
Moon 10:32 PM EST (3/1) 9:03 AM EST (3/1)
Length of Visible Light 12h 23m
Length of Day
11h 36m
Waning Gibbous, 83% of the Moon is Illuminated
Mar 1
Waning Gibbous
Mar 4
Last Quarter
Mar 11
New
Mar 19
First Quarter
Mar 27
Full

Hourly Weather History & Observations

Time (EST) Temp. Dew Point Humidity Pressure Visibility Wind Dir Wind Speed Gust Speed Precip Events Conditions
12:15 AM 53.6 °F 46.4 °F 77% 29.96 in 10.0 mi WNW 5.8 mph - N/A   Clear
12:35 AM 51.8 °F 44.6 °F 76% 29.96 in 10.0 mi WNW 4.6 mph - N/A   Clear
12:55 AM 51.8 °F 44.6 °F 76% 29.96 in 10.0 mi WNW 4.6 mph - N/A   Scattered Clouds
1:15 AM 51.8 °F 44.6 °F 76% 29.97 in 10.0 mi WNW 5.8 mph - N/A   Mostly Cloudy
1:35 AM 51.8 °F 44.6 °F 76% 29.96 in 10.0 mi NW 5.8 mph - N/A   Scattered Clouds
1:55 AM 51.8 °F 44.6 °F 76% 29.96 in 10.0 mi NW 6.9 mph - N/A   Mostly Cloudy
2:15 AM 51.8 °F 42.8 °F 71% 29.96 in 10.0 mi WNW 4.6 mph - N/A   Scattered Clouds
2:35 AM 51.8 °F 42.8 °F 71% 29.95 in 10.0 mi West 3.5 mph - N/A   Clear
3:15 AM 51.8 °F 44.6 °F 76% 29.95 in 10.0 mi Calm Calm - N/A   Clear
3:35 AM 50.0 °F 42.8 °F 76% 29.94 in 10.0 mi Calm Calm - N/A   Clear
3:55 AM 46.4 °F 42.8 °F 87% 29.94 in 10.0 mi Calm Calm - N/A   Clear
4:15 AM 46.4 °F 42.8 °F 87% 29.94 in 10.0 mi Calm Calm - N/A   Clear
4:35 AM 50.0 °F 44.6 °F 82% 29.94 in 10.0 mi Calm Calm - N/A   Clear
5:15 AM 48.2 °F 42.8 °F 82% 29.95 in 10.0 mi NNW 3.5 mph - N/A   Clear
5:35 AM 48.2 °F 41.0 °F 76% 29.96 in 10.0 mi NNW 4.6 mph - N/A   Clear
5:50 AM 48.2 °F 41.0 °F 76% 29.97 in 10.0 mi North 5.8 mph - N/A   Clear
8:50 AM 51.8 °F 39.2 °F 62% 30.00 in 15.0 mi North 5.8 mph - N/A   Mostly Cloudy
9:50 AM 53.6 °F 35.6 °F 51% 30.02 in 15.0 mi NNW 5.8 mph - N/A   Overcast
11:55 AM 57.2 °F 33.8 °F 41% 30.02 in 15.0 mi WNW 9.2 mph - N/A   Overcast
2:50 PM 60.8 °F 37.4 °F 42% 29.95 in 15.0 mi NW 10.4 mph 16.1 mph N/A   Mostly Cloudy
3:56 PM 64.4 °F 35.6 °F 34% 29.96 in 15.0 mi WNW 17.3 mph 23.0 mph N/A   Mostly Cloudy
5:50 PM 57.2 °F 37.4 °F 48% 29.98 in 15.0 mi NW 11.5 mph - N/A   Mostly Cloudy
6:55 PM 55.4 °F 37.4 °F 51% 29.99 in 15.0 mi WNW 11.5 mph - N/A   Mostly Cloudy
7:50 PM 55.4 °F 37.4 °F 51% 30.00 in 12.0 mi NW 11.5 mph - N/A   Overcast
9:50 PM 53.6 °F 37.4 °F 54% 30.03 in 10.0 mi WNW 10.4 mph - N/A   Overcast
9:55 PM 53.6 °F 37.4 °F 54% 30.02 in 10.0 mi WNW 8.1 mph - N/A   Overcast
10:15 PM 53.6 °F 37.4 °F 54% 30.03 in 10.0 mi WNW 8.1 mph - N/A   Overcast
10:35 PM 53.6 °F 37.4 °F 54% 30.02 in 10.0 mi WNW 6.9 mph - N/A   Overcast
10:55 PM 53.6 °F 37.4 °F 54% 30.03 in 10.0 mi WNW 6.9 mph - N/A   Overcast
11:15 PM 53.6 °F 37.4 °F 54% 30.03 in 10.0 mi WNW 9.2 mph - N/A   Mostly Cloudy
11:35 PM 53.6 °F 37.4 °F 54% 30.03 in 10.0 mi WNW 8.1 mph - N/A   Scattered Clouds
11:55 PM 51.8 °F 37.4 °F 58% 30.02 in 10.0 mi NW 5.8 mph - N/A   Scattered Clouds